Aeroporto :
LOGIN :

Iscrizione | Disclaimer

   EN    FR    IT 

 










Sommario :    VFR   VFR Marginale   IFR   IFR Intensivo   IFR Molto Intensivo
Visibilità : 
Base nubi : 
>= 8 km
>= 3000ft
5 / 8 km
1000 / 3000 ft
1500m / 5 km
500 / 1000 ft
800 / 1500m
200 / 500 ft
< 800m
< 200 ft
Simboli :   Temporali  Nebbia  Neve Forte  Precipitazioni Forti  Vento > 20 kt
SIGMETs :   Varie  Temporali  Ghiacco  Turbolenza  Onda orograficha  Ceneri Vulcaniche







- Altitudine del aeroporto : 1325 ft
- Codice IATA : EBU
- Carte del aeroporto


LFMH - St-Etienne Boutheon

ULTIMO METAR :
  • 162100Z AUTO 17005KT CAVOK 09/M07 Q1026 NOSIG

METARs OBSOLETI :
  • 162030Z AUTO 17007KT CAVOK 09/M07 Q1026 NOSIG
  • 162000Z AUTO 18007KT CAVOK 10/M06 Q1026 NOSIG
  • 161930Z AUTO 18007KT CAVOK 11/M07 Q1026 NOSIG
  • 161900Z AUTO 17008KT 7000 NSC 10/M05 Q1026 NOSIG
  • 161830Z AUTO 19008KT 8000 NSC 11/M03 Q1026 NOSIG

TAF TAF LFMH
Valido dal 16 a 15 ore il 17 a 15 ore UTC


161400Z 1615/1715 17007KT CAVOK
ATIS : +33 4 77 36 17 51
Nessun NOTAM noto per questo aeroporto.



MetMap, La meteo Aeronautica in un colpo d'occhio ! - Copyright ORBIFLY Dicembre 2007 - Disclaimer

ORBIFLY MET'MAP TEAM :

Programmazione e sviluppo : Alexandra Zaïnal
Concezione e sviluppo : Baudouin d'Aumeries
Co-Programmazione e sviluppo : Marc-Olivier Méhu
Supporto tecnico e logistico : Manuel Goepfert
Aiuto per la traduzione : Arnaldo La Scala

Contatto : metmap@orbifly.com




FONTI E CREDITI :

   NOAA